Tracking 29510 objects as of 16-Sep-2024
HD Live streaming from Space Station
objects crossing your sky now

FENGYUN 1C DEB

Track FENGYUN 1C DEB now!
10-day predictions


NORAD ID: 29874
Int'l Code: 1999-025FU
Perigee: 751.7 km
Apogee: 916.4 km
Inclination: 98.4 °
Period: 101.4 minutes
Semi major axis: 7205 km
RCS: 0.0288 m2 (small)
Launch date: May 10, 1999
Source: People's Republic of China (PRC)
Launch site: Taiyaun Space Center, China (TSC)

Note: This is SATELLITE DEBRIS
Your satellite tracking list
Your tracking list is empty




NASA's NSSDC Master Catalog

Two Line Element Set (TLE):
1 29874U 99025FU  24259.72862927  .00015994  00000-0  71116-2 0  9996
2 29874  98.3881 170.5571 0114285 238.9000 153.0403 14.19529709903968
Source of the keplerian elements: AFSPC